Weather History for McGuire AFB, NJ

Change the Weather History Date:

Sunday, January 13, 2013

  Actual Average Record
Temperature  
Mean Temperature 48 °F -  
Max Temperature 53 °F 37 °F 69 °F (2005)
Min Temperature 42 °F 21 °F 15 °F (1997)
Degree Days  
Heating Degree Days 18    
Moisture  
Dew Point 47 °F    
Average Humidity 99    
Maximum Humidity 100    
Minimum Humidity 87    
Precipitation  
Precipitation 0.00 in - - ()
Sea Level Pressure  
Sea Level Pressure 30.08 in    
Wind  
Wind Speed 3 mph (SSE)    
Max Wind Speed 10 mph    
Max Gust Speed -    
Visibility 2 miles    
Events Fog    
Averages and records for this station are not official NWS values.
T = Trace of Precipitation, MM = Missing Value Source: NWS Daily Summary

Daily Weather History Graph

Daily Weather History Graph

Search for Another Location

Airport:

Trip Planner

Search our weather history database for the weather conditions in past years. The results will help you decide how hot, cold, wet, or windy it might be!

Date:

Astronomy

Jan. 13, 2013 Rise Set
Actual Time 7:19 AM EST 4:55 PM EST
Civil Twilight 6:49 AM EST 5:25 PM EST
Nautical Twilight 6:15 AM EST 5:59 PM EST
Astronomical Twilight 5:43 AM EST 6:31 PM EST
Moon 8:16 AM EST (1/13) 7:31 PM EST (1/13)
Length of Visible Light 10h 36m
Length of Day
9h 36m
Waxing Crescent, 5% of the Moon is Illuminated
Jan 13
Waxing Crescent
Jan 18
First Quarter
Jan 26
Full
Feb 3
Last Quarter
Feb 10
New

Hourly Weather History & Observations

Time (EST) Temp. Windchill Dew Point Humidity Pressure Visibility Wind Dir Wind Speed Gust Speed Precip Events Conditions
12:26 AM 44.6 °F - 44.6 °F 100% 30.14 in 0.5 mi Calm Calm - N/A Fog Fog
12:27 AM 44.6 °F - 44.6 °F 100% 30.14 in 0.8 mi Calm Calm - N/A   Mist
12:32 AM 44.6 °F - 44.6 °F 100% 30.14 in 1.0 mi Calm Calm - N/A   Mist
12:35 AM 44.6 °F - 44.6 °F 100% 30.14 in 1.2 mi Calm Calm - N/A   Overcast
12:40 AM 44.6 °F - 44.6 °F 100% 30.14 in 1.0 mi Calm Calm - N/A   Mist
12:45 AM 44.6 °F - 44.6 °F 100% 30.14 in 0.8 mi Calm Calm - N/A   Mist
12:48 AM 44.6 °F - 44.6 °F 100% 30.14 in 0.8 mi Calm Calm - N/A   Mist
12:53 AM 44.6 °F - 44.6 °F 100% 30.13 in 0.8 mi Calm Calm - N/A   Mist
12:54 AM 44.6 °F - 44.6 °F 100% 30.13 in 0.8 mi Calm Calm - N/A   Mist
12:55 AM 44.8 °F - 44.8 °F 100% 30.13 in 0.8 mi Calm Calm - N/A   Mist
12:56 AM 44.6 °F - 44.6 °F 100% 30.13 in 1.0 mi Calm Calm - N/A   Mist
1:00 AM 44.6 °F - 44.6 °F 100% 30.13 in 1.2 mi Calm Calm - N/A   Overcast
1:07 AM 44.6 °F - 44.6 °F 100% 30.14 in 1.0 mi Calm Calm - N/A   Overcast
1:11 AM 44.6 °F - 44.6 °F 100% 30.14 in 1.0 mi Calm Calm - N/A   Overcast
1:12 AM 44.6 °F - 44.6 °F 100% 30.14 in 1.0 mi Calm Calm - N/A   Overcast
1:16 AM 44.6 °F - 44.6 °F 100% 30.14 in 1.2 mi Calm Calm - N/A   Overcast
1:18 AM 44.6 °F - 44.6 °F 100% 30.14 in 1.5 mi Calm Calm - N/A   Overcast
1:20 AM 44.6 °F - 44.6 °F 100% 30.14 in 1.8 mi Calm Calm - N/A   Overcast
1:23 AM 44.6 °F - 44.6 °F 100% 30.14 in 1.5 mi Calm Calm - N/A   Overcast
1:25 AM 44.6 °F - 44.6 °F 100% 30.13 in 1.2 mi Calm Calm - N/A   Overcast
1:27 AM 44.6 °F 43.1 °F 44.6 °F 100% 30.13 in 1.0 mi NE 3.5 mph - N/A   Overcast
1:31 AM 44.6 °F - 44.6 °F 100% 30.14 in 1.0 mi Calm Calm - N/A   Overcast
1:32 AM 44.6 °F - 44.6 °F 100% 30.14 in 0.8 mi Calm Calm - N/A   Overcast
1:43 AM 44.6 °F - 44.6 °F 100% 30.14 in 0.8 mi Calm Calm - N/A   Mist
1:44 AM 44.6 °F - 44.6 °F 100% 30.14 in 0.8 mi Calm Calm - N/A   Mist
1:46 AM 44.6 °F 43.1 °F 44.6 °F 100% 30.14 in 0.8 mi SE 3.5 mph - N/A   Mist
1:49 AM 44.6 °F 43.1 °F 44.6 °F 100% 30.13 in 1.0 mi SE 3.5 mph - N/A   Mist
1:52 AM 44.6 °F 41.4 °F 44.6 °F 100% 30.13 in 1.2 mi SE 5.8 mph - N/A   Overcast
1:53 AM 44.6 °F 42.2 °F 44.6 °F 100% 30.13 in 1.2 mi SE 4.6 mph - N/A   Overcast
1:54 AM 44.6 °F 42.2 °F 44.6 °F 100% 30.13 in 1.5 mi ESE 4.6 mph - N/A   Overcast
1:55 AM 44.6 °F 43.1 °F 44.6 °F 100% 30.13 in 1.8 mi ESE 3.5 mph - N/A   Overcast
1:56 AM 44.6 °F 43.1 °F 44.6 °F 100% 30.13 in 2.0 mi ESE 3.5 mph - N/A   Overcast
2:03 AM 44.6 °F 43.1 °F 44.6 °F 100% 30.12 in 1.8 mi ESE 3.5 mph - N/A   Overcast
2:04 AM 44.6 °F 43.1 °F 44.6 °F 100% 30.13 in 1.5 mi ESE 3.5 mph - N/A   Overcast
2:06 AM 44.6 °F 43.1 °F 44.6 °F 100% 30.13 in 1.2 mi ESE 3.5 mph - N/A   Overcast
2:07 AM 44.6 °F 43.1 °F 44.6 °F 100% 30.13 in 1.2 mi ESE 3.5 mph - N/A   Overcast
2:08 AM 44.6 °F 43.1 °F 44.6 °F 100% 30.12 in 1.0 mi ESE 3.5 mph - N/A   Mist
2:14 AM 44.6 °F 43.1 °F 44.6 °F 100% 30.12 in 0.8 mi SE 3.5 mph - N/A   Mist
2:18 AM 44.6 °F 42.2 °F 44.6 °F 100% 30.13 in 1.0 mi SSE 4.6 mph - N/A   Overcast
2:23 AM 44.6 °F 43.1 °F 44.6 °F 100% 30.13 in 1.2 mi ESE 3.5 mph - N/A   Overcast
2:29 AM 44.6 °F 43.1 °F 44.6 °F 100% 30.13 in 1.0 mi ESE 3.5 mph - N/A   Overcast
2:32 AM 44.6 °F 43.1 °F 44.6 °F 100% 30.13 in 1.0 mi SE 3.5 mph - N/A   Overcast
2:43 AM 44.6 °F 42.2 °F 44.6 °F 100% 30.13 in 1.0 mi ESE 4.6 mph - N/A   Overcast
3:54 AM 44.6 °F 42.2 °F 44.6 °F 100% 30.13 in 1.0 mi SSE 4.6 mph - N/A   Overcast
3:55 AM 44.4 °F 42.0 °F 44.4 °F 100% 30.13 in 1.0 mi South 4.6 mph - N/A   Overcast
3:58 AM 44.6 °F 42.2 °F 44.6 °F 100% 30.13 in 1.0 mi South 4.6 mph - N/A   Overcast
4:00 AM 44.6 °F 42.2 °F 44.6 °F 100% 30.12 in 1.0 mi South 4.6 mph - N/A   Overcast
4:11 AM 44.6 °F 43.1 °F 44.6 °F 100% 30.12 in 0.8 mi South 3.5 mph - N/A   Mist
4:12 AM 44.6 °F 43.1 °F 44.6 °F 100% 30.12 in 0.8 mi SSW 3.5 mph - N/A   Mist
4:16 AM 44.6 °F 42.2 °F 44.6 °F 100% 30.12 in 0.8 mi South 4.6 mph - N/A   Mist
4:36 AM 44.6 °F 42.2 °F 44.6 °F 100% 30.12 in 0.8 mi South 4.6 mph - N/A   Mist
4:46 AM 44.6 °F 42.2 °F 44.6 °F 100% 30.12 in 0.8 mi South 4.6 mph - N/A   Mist
4:48 AM 44.6 °F 42.2 °F 44.6 °F 100% 30.12 in 0.5 mi SSW 4.6 mph - N/A Fog Fog
4:54 AM 44.6 °F 42.2 °F 44.6 °F 100% 30.12 in 0.8 mi SE 4.6 mph - N/A   Mist
4:55 AM 44.2 °F 41.8 °F 44.2 °F 100% 30.11 in 0.8 mi SE 4.6 mph - N/A   Mist
5:04 AM 44.6 °F 43.1 °F 44.6 °F 100% 30.10 in 0.5 mi SE 3.5 mph - N/A Fog Fog
5:05 AM 44.6 °F 42.2 °F 44.6 °F 100% 30.10 in 0.5 mi SE 4.6 mph - N/A Fog Fog
5:14 AM 44.6 °F 42.2 °F 44.6 °F 100% 30.10 in 0.5 mi SSE 4.6 mph - N/A Fog Fog
5:26 AM 44.6 °F 42.2 °F 44.6 °F 100% 30.11 in 0.5 mi South 4.6 mph - N/A Fog Fog
5:42 AM 42.8 °F 40.1 °F 42.8 °F 100% 30.11 in 0.8 mi SSE 4.6 mph - N/A   Mist
5:54 AM 42.8 °F 41.1 °F 42.8 °F 100% 30.12 in 0.5 mi SSE 3.5 mph - N/A Fog Fog
5:55 AM 43.2 °F 40.5 °F 43.2 °F 100% 30.12 in 0.5 mi SSE 4.6 mph - N/A Fog Fog
6:01 AM 42.8 °F 40.1 °F 42.8 °F 100% 30.11 in 0.8 mi SE 4.6 mph - N/A   Mist
6:07 AM 42.8 °F 39.3 °F 42.8 °F 100% 30.11 in 0.5 mi SE 5.8 mph - N/A Fog Fog
6:19 AM 42.8 °F 41.1 °F 42.8 °F 100% 30.10 in 0.5 mi SE 3.5 mph - N/A Fog Fog
6:24 AM 42.8 °F 39.3 °F 42.8 °F 100% 30.11 in 0.5 mi SE 5.8 mph - N/A Fog Fog
6:45 AM 42.8 °F 40.1 °F 42.8 °F 100% 30.10 in 0.5 mi SE 4.6 mph - N/A Fog Fog
6:51 AM 42.8 °F 40.1 °F 42.8 °F 100% 30.10 in 0.5 mi SE 4.6 mph - N/A Fog Fog
6:55 AM 42.8 °F 38.6 °F 42.8 °F 100% 30.10 in 0.5 mi SE 6.9 mph - N/A Fog Fog
7:02 AM 42.8 °F 40.1 °F 42.8 °F 100% 30.11 in 0.8 mi SE 4.6 mph - N/A   Mist
7:08 AM 42.8 °F 40.1 °F 42.8 °F 100% 30.11 in 0.8 mi SE 4.6 mph - N/A   Mist
7:09 AM 42.8 °F 40.1 °F 42.8 °F 100% 30.11 in 0.8 mi SE 4.6 mph - N/A   Mist
7:13 AM 42.8 °F 40.1 °F 42.8 °F 100% 30.11 in 0.5 mi SE 4.6 mph - N/A Fog Fog
7:17 AM 42.8 °F 39.3 °F 42.8 °F 100% 30.11 in 0.5 mi SE 5.8 mph - N/A Fog Fog
7:18 AM 42.8 °F 39.3 °F 42.8 °F 100% 30.11 in 0.5 mi SE 5.8 mph - N/A Fog Fog
7:22 AM 42.8 °F 38.6 °F 42.8 °F 100% 30.11 in 0.8 mi SE 6.9 mph - N/A   Overcast
7:24 AM 42.8 °F 39.3 °F 42.8 °F 100% 30.12 in 1.0 mi SE 5.8 mph - N/A   Overcast
7:25 AM 42.8 °F 39.3 °F 42.8 °F 100% 30.12 in 1.2 mi SSE 5.8 mph - N/A   Overcast
7:30 AM 42.8 °F 39.3 °F 42.8 °F 100% 30.11 in 1.0 mi ESE 5.8 mph - N/A   Overcast
7:34 AM 42.8 °F 39.3 °F 42.8 °F 100% 30.11 in 0.8 mi ESE 5.8 mph - N/A   Overcast
7:35 AM 42.8 °F 40.1 °F 42.8 °F 100% 30.11 in 0.8 mi ESE 4.6 mph - N/A   Overcast
7:40 AM 42.8 °F 39.3 °F 42.8 °F 100% 30.11 in 0.8 mi SE 5.8 mph - N/A   Mist
7:41 AM 42.8 °F 39.3 °F 42.8 °F 100% 30.11 in 0.8 mi SE 5.8 mph - N/A   Mist
11:55 AM 46.4 °F 44.3 °F 46.4 °F 100% 30.11 in 7.0 mi South 4.6 mph - N/A   Overcast
1:00 PM 51.8 °F - 51.8 °F 100% 30.06 in 10.0 mi SSE 6.9 mph - N/A   Overcast
1:55 PM 52.2 °F - 49.1 °F 89% 30.05 in 10.0 mi SSE 3.5 mph - N/A   Overcast
2:40 PM 53.6 °F - 50.0 °F 88% 30.04 in 10.0 mi South 3.5 mph - N/A   Overcast
2:55 PM 53.6 °F - 49.8 °F 87% 30.06 in 10.0 mi SW 5.8 mph - N/A   Overcast
3:55 PM 53.6 °F - 50.2 °F 88% 30.05 in 10.0 mi South 6.9 mph - N/A   Overcast
4:42 PM 53.6 °F - 50.0 °F 88% 30.04 in 10.0 mi South 6.9 mph - N/A   Overcast
4:55 PM 52.5 °F - 49.8 °F 91% 30.04 in 10.0 mi South 6.9 mph - N/A   Overcast
5:11 PM 51.8 °F - 50.0 °F 94% 30.04 in 10.0 mi South 6.9 mph - N/A   Overcast
5:28 PM 51.8 °F - 50.0 °F 94% 30.04 in 10.0 mi South 6.9 mph - N/A   Overcast
5:44 PM 51.8 °F - 50.0 °F 94% 30.04 in 10.0 mi SSW 3.5 mph - N/A   Overcast
5:55 PM 50.7 °F - 50.5 °F 99% 30.04 in 10.0 mi South 5.8 mph - N/A   Overcast
6:04 PM 50.0 °F - 50.0 °F 100% 30.04 in 9.0 mi South 10.4 mph - N/A   Overcast
6:11 PM 50.0 °F - 50.0 °F 100% 30.03 in 5.0 mi South 5.8 mph - N/A   Overcast
6:13 PM 50.0 °F - 50.0 °F 100% 30.04 in 4.0 mi South 3.5 mph - N/A   Overcast
6:18 PM 50.0 °F - 50.0 °F 100% 30.04 in 5.0 mi South 3.5 mph - N/A   Overcast
6:20 PM 50.0 °F - 50.0 °F 100% 30.04 in 6.0 mi South 4.6 mph - N/A   Overcast
6:35 PM 50.0 °F - 50.0 °F 100% 30.04 in 2.5 mi SSW 9.2 mph - N/A   Overcast
6:36 PM 50.0 °F - 50.0 °F 100% 30.04 in 1.8 mi SSW 8.1 mph - N/A   Overcast
6:37 PM 50.0 °F - 50.0 °F 100% 30.04 in 1.5 mi South 6.9 mph - N/A   Overcast
6:39 PM 50.0 °F - 50.0 °F 100% 30.04 in 1.2 mi SSW 6.9 mph - N/A   Overcast
6:40 PM 50.0 °F - 50.0 °F 100% 30.04 in 1.2 mi SSW 5.8 mph - N/A   Overcast
6:42 PM 50.0 °F - 50.0 °F 100% 30.03 in 1.0 mi South 6.9 mph - N/A   Mist
6:53 PM 50.0 °F - 50.0 °F 100% 30.04 in 1.0 mi SSW 5.8 mph - N/A   Mist
6:55 PM 49.8 °F - 49.6 °F 99% 30.04 in 1.0 mi SSW 6.9 mph - N/A   Mist
6:57 PM 50.0 °F - 50.0 °F 100% 30.04 in 0.8 mi SSW 8.1 mph - N/A   Mist
7:10 PM 50.0 °F - 50.0 °F 100% 30.04 in 0.8 mi South 4.6 mph - N/A   Mist
7:55 PM 49.8 °F - 49.6 °F 99% 30.02 in 0.8 mi South 4.6 mph - N/A   Mist
8:01 PM 50.0 °F - 50.0 °F 100% 30.02 in 0.8 mi SSW 4.6 mph - N/A   Mist
8:07 PM 50.0 °F - 50.0 °F 100% 30.02 in 1.0 mi SSW 4.6 mph - N/A   Mist
8:16 PM 50.0 °F - 50.0 °F 100% 30.02 in 1.0 mi SSW 4.6 mph - N/A   Mist
8:20 PM 50.0 °F - 50.0 °F 100% 30.02 in 1.2 mi South 3.5 mph - N/A   Overcast
8:30 PM 50.0 °F - 50.0 °F 100% 30.02 in 1.5 mi South 3.5 mph - N/A   Overcast
8:34 PM 50.0 °F - 50.0 °F 100% 30.01 in 1.2 mi South 4.6 mph - N/A   Overcast
8:48 PM 50.0 °F - 50.0 °F 100% 30.01 in 1.5 mi SSW 3.5 mph - N/A   Overcast
8:55 PM 50.0 °F - 50.0 °F 100% 30.01 in 1.5 mi South 3.5 mph - N/A   Overcast
9:00 PM 50.0 °F - 50.0 °F 100% 30.00 in 1.2 mi South 4.6 mph - N/A   Overcast
9:09 PM 50.0 °F - 50.0 °F 100% 30.01 in 1.0 mi South 3.5 mph - N/A   Mist
9:12 PM 50.0 °F - 50.0 °F 100% 30.01 in 1.0 mi SSW 4.6 mph - N/A   Mist
9:15 PM 50.0 °F - 50.0 °F 100% 30.00 in 1.0 mi South 3.5 mph - N/A   Mist
9:27 PM 50.0 °F - 50.0 °F 100% 30.00 in 1.0 mi South 3.5 mph - N/A   Mist
9:32 PM 50.0 °F - 50.0 °F 100% 30.00 in 1.2 mi South 3.5 mph - N/A   Overcast
9:38 PM 50.0 °F - 50.0 °F 100% 30.00 in 1.5 mi South 3.5 mph - N/A   Overcast
9:44 PM 50.0 °F - 50.0 °F 100% 30.00 in 1.8 mi South 3.5 mph - N/A   Overcast
9:48 PM 50.0 °F - 50.0 °F 100% 30.00 in 2.0 mi South 3.5 mph - N/A   Overcast
9:55 PM 50.7 °F - 50.7 °F 100% 30.01 in 2.0 mi SSW 3.5 mph - N/A   Overcast
10:05 PM 50.0 °F - 50.0 °F 100% 30.01 in 2.5 mi SSW 3.5 mph - N/A   Overcast
10:11 PM 51.8 °F - 51.8 °F 100% 30.01 in 3.0 mi SSW 3.5 mph - N/A   Overcast
10:15 PM 51.8 °F - 51.8 °F 100% 30.01 in 3.0 mi SSW 3.5 mph - N/A   Overcast
10:17 PM 51.8 °F - 51.8 °F 100% 30.01 in 3.0 mi SSW 4.6 mph - N/A   Overcast
10:27 PM 51.8 °F - 51.8 °F 100% 30.01 in 4.0 mi SSW 3.5 mph - N/A   Overcast
10:39 PM 51.8 °F - 51.8 °F 100% 30.01 in 4.0 mi South 3.5 mph - N/A   Overcast
10:44 PM 51.8 °F - 51.8 °F 100% 30.01 in 3.0 mi SSW 3.5 mph - N/A   Overcast
10:46 PM 51.8 °F - 51.8 °F 100% 30.00 in 2.5 mi South 3.5 mph - N/A   Overcast
10:47 PM 51.8 °F - 51.8 °F 100% 30.00 in 2.5 mi South 3.5 mph - N/A   Overcast
10:55 PM 51.3 °F - 51.3 °F 100% 30.01 in 2.5 mi Calm Calm - N/A   Overcast
11:43 PM 51.8 °F - 51.8 °F 100% 30.00 in 1.8 mi SSW 3.5 mph - N/A   Overcast
11:45 PM 51.8 °F - 51.8 °F 100% 30.00 in 1.5 mi SSW 3.5 mph - N/A   Overcast
11:49 PM 51.8 °F - 51.8 °F 100% 30.00 in 1.2 mi South 4.6 mph - N/A   Overcast
11:54 PM 51.8 °F - 51.8 °F 100% 30.00 in 1.0 mi South 4.6 mph - N/A   Mist
11:55 PM 51.8 °F - 51.8 °F 100% 30.00 in 1.0 mi South 4.6 mph - N/A   Mist
11:58 PM 51.8 °F - 51.8 °F 100% 30.00 in 1.0 mi South 4.6 mph - N/A   Mist